[[{"header":{"parameterUnit":"m.s-1","parameterCategory":2,"la1":30.2991,"la2":30.254,"lo1":-89.0895,"lo2":-89.0444,"dy":0.0017,"dx":0.0017,"nx":28,"ny":28,"refTime":"2024-07-06T03:00:00:Z","depth":"0","parameterNumber":2,"parameterNumberName":"U-component_of_CURRENTS"},"data":[0,0,0,0,0,0,0,0,0,0,0,0,0,0,0,0,0,0,0,0,0,0,0,0,0,0,0,0,0,0,0,0,0,0,0,0,0,0,0,0,0,0,0,0,0,0,0,0,0,0,0,0,0,0,0,0,0,0,-0.2388,-0.2388,0,-0.2343,-0.2342,-0.2342,-0.2238,-0.2236,-0.2234,-0.2233,-0.2082,-0.208,-0.2077,0,0,0,0,0,0,0,0,0,0,0,0,0,-0.245,-0.2449,-0.2388,-0.2388,-0.2388,-0.2343,-0.2342,-0.2341,-0.2239,-0.2236,-0.2234,-0.2232,-0.2082,-0.208,-0.2077,0,0,0,0,0,0,0,0,0,0,0,0,0,-0.2414,-0.2449,-0.2388,-0.2332,-0.2327,-0.2343,-0.2342,-0.2341,-0.2239,-0.2236,-0.2233,-0.2231,-0.2083,-0.208,-0.2077,-0.2115,0,0,-0.2067,-0.2065,0,0,0,0,0,0,0,0,-0.2416,-0.2411,-0.2341,-0.2336,-0.233,-0.2295,-0.2309,-0.2261,-0.224,-0.227,-0.2233,-0.2229,-0.2147,-0.2138,-0.2135,-0.2107,-0.2101,-0.2066,-0.2064,-0.2063,-0.2062,0,0,0,0,0,0,0,-0.2419,-0.2413,-0.2368,-0.2341,-0.2335,-0.2332,-0.2323,-0.23,-0.2222,-0.2268,-0.226,-0.226,-0.2142,-0.2138,-0.213,-0.2099,-0.2066,-0.2063,-0.2061,-0.206,-0.204,-0.2041,0,0,0,0,0,0,-0.2428,-0.2416,-0.237,-0.2367,-0.2369,-0.2333,-0.2323,-0.2308,-0.2224,-0.221,-0.2262,-0.2255,-0.2145,-0.2134,-0.2124,-0.2139,-0.2063,-0.206,-0.2058,-0.2039,-0.204,-0.2042,0,0,0,0,0,0,-0.2429,-0.2424,-0.2372,-0.2393,-0.2386,-0.2335,-0.2319,-0.2308,-0.2284,-0.2222,-0.2204,-0.2246,-0.2143,-0.2129,-0.2088,-0.2132,-0.2058,-0.2055,-0.2037,-0.2039,-0.2041,-0.2183,0,0,0,0,0,0,-0.2431,-0.2424,-0.2414,-0.2393,-0.2385,-0.2372,-0.2322,-0.231,-0.229,-0.2279,-0.2203,-0.2187,-0.2139,-0.2093,-0.2085,-0.2126,-0.2053,-0.2035,-0.2038,-0.204,-0.2177,-0.219,-0.2202,0,0,0,0,0,-0.2433,-0.2444,-0.2414,-0.2408,-0.2373,-0.2373,-0.2369,-0.2322,-0.2292,-0.2288,-0.2232,-0.2188,-0.2105,-0.2092,-0.2081,-0.2123,-0.2034,-0.2037,-0.204,-0.2171,-0.2188,-0.2201,0,0,0,0,0,0,-0.2455,-0.2434,-0.24,-0.2397,-0.2378,-0.2356,-0.2361,-0.2327,-0.2286,-0.2275,-0.2201,-0.2182,-0.217,-0.2124,-0.2111,-0.2124,-0.2065,-0.2067,-0.2169,-0.2183,-0.2196,-0.2225,-0.205,0,0,0,0,0,-0.2459,-0.2462,-0.2433,-0.2428,-0.2427,-0.2392,-0.2386,-0.2358,-0.2325,-0.2303,-0.2247,-0.2201,-0.2184,-0.216,-0.2131,-0.2135,-0.2123,-0.2155,-0.2168,-0.2179,-0.2195,-0.2242,-0.2262,-0.2053,-0.2053,-0.2053,0,0,-0.2463,-0.2456,-0.2451,-0.2434,-0.2421,-0.2428,-0.238,-0.2384,-0.2386,-0.2296,-0.2277,-0.2241,-0.2194,-0.2199,-0.219,-0.2159,-0.2228,-0.2183,-0.2193,-0.2203,-0.2248,-0.2269,-0.2287,-0.2055,-0.2055,-0.2054,0,0,-0.2488,-0.2472,-0.248,-0.2478,-0.247,-0.2461,-0.2461,-0.2435,-0.242,-0.2406,-0.2355,-0.2351,-0.229,-0.2289,-0.2278,-0.2343,-0.2295,-0.232,-0.2405,-0.2452,-0.247,-0.2486,-0.2485,-0.25,-0.2324,-0.2324,-0.2324,0,-0.2482,-0.2496,-0.2483,-0.2497,-0.2509,-0.2477,-0.2496,-0.2491,-0.2449,-0.2455,-0.241,-0.2388,-0.235,-0.239,-0.2409,-0.2378,-0.2368,-0.2356,-0.2472,-0.2487,-0.2502,-0.2497,-0.2511,-0.2331,-0.233,-0.233,-0.2329,0,-0.2511,-0.2525,-0.2545,-0.2549,-0.2557,-0.2583,-0.2577,-0.2581,-0.2564,-0.255,-0.2573,-0.2539,-0.252,-0.2525,-0.2484,-0.2568,-0.2516,-0.2489,-0.2443,-0.2532,-0.2519,-0.2532,-0.2342,-0.2339,-0.2337,-0.2335,0,0,-0.249,-0.255,-0.2555,-0.2568,-0.2598,-0.2601,-0.2647,-0.2672,-0.2681,-0.2678,-0.2699,-0.2721,-0.2695,-0.2683,-0.265,-0.2698,-0.279,-0.2636,-0.2635,-0.265,-0.2857,-0.2557,-0.2541,-0.278,-0.2784,-0.2786,-0.2804,0,-0.2511,-0.2558,-0.2593,-0.2635,-0.2656,-0.2681,-0.2712,-0.2731,-0.2736,-0.2741,-0.2774,-0.2764,-0.2757,-0.2738,-0.2803,-0.2769,-0.2831,-0.2785,-0.2755,-0.2754,-0.2489,-0.2549,-0.234,-0.2315,-0.2816,-0.2818,-0.282,0,-0.2531,-0.2557,-0.2612,-0.2673,-0.2685,-0.2706,-0.2756,-0.2777,-0.2813,-0.2813,-0.2854,-0.2834,-0.2898,-0.2869,-0.2943,-0.2904,-0.2908,-0.2904,-0.2904,-0.2584,-0.2477,-0.2307,-0.2318,-0.2275,-0.2839,-0.2837,-0.2836,0,-0.2513,-0.2582,-0.2631,-0.2649,-0.27,-0.2733,-0.2758,-0.2794,-0.2804,-0.2844,-0.284,-0.2912,-0.2904,-0.2971,-0.2944,-0.2951,-0.2995,-0.2999,-0.2755,-0.2733,-0.2527,-0.2477,-0.2502,-0.3099,-0.3099,-0.3099,-0.3099,0,-0.2535,-0.2562,-0.2619,-0.2632,-0.2645,-0.2709,-0.2735,-0.2753,-0.28,-0.281,-0.2858,-0.287,-0.2931,-0.2941,-0.2965,-0.2851,-0.3016,-0.2774,-0.2723,-0.256,-0.2516,-0.2439,-0.2506,-0.3099,-0.3099,-0.3099,-0.3099,0,-0.2466,-0.2553,-0.2551,-0.2605,-0.263,-0.2607,-0.2674,-0.2701,-0.2747,-0.2764,-0.2775,-0.2829,-0.2824,-0.2845,-0.2896,-0.2804,-0.2691,-0.2711,-0.247,-0.2386,-0.2039,-0.2121,-0.2118,-0.2073,-0.2438,-0.2431,-0.2425,0,-0.2411,-0.241,-0.2452,-0.2458,-0.2475,-0.2498,-0.2541,-0.2632,-0.2668,-0.2737,-0.2744,-0.274,-0.2701,-0.26,-0.246,-0.2376,-0.2481,-0.2104,-0.2078,-0.1978,-0.204,-0.2136,-0.2111,-0.1889,-0.1879,-0.1871,-0.1865,0,-0.2186,-0.2214,-0.22,-0.2258,-0.2303,-0.2373,-0.2446,-0.2477,-0.2605,-0.2618,-0.2639,-0.2608,-0.244,-0.2159,-0.1945,-0.1924,-0.1987,-0.1921,-0.1936,-0.169,-0.1692,-0.1632,-0.1908,-0.1792,-0.1799,-0.1804,-0.1808,-0.1811,-0.1935,-0.1876,-0.1915,-0.196,-0.2084,-0.224,-0.2233,-0.2342,-0.2383,-0.231,-0.2412,-0.2155,-0.183,-0.1468,-0.1472,-0.1208,-0.1468,-0.1138,-0.1274,-0.1401,-0.1266,-0.1308,-0.1037,-0.104,-0.1042,-0.1044,-0.1046,0,-0.1604,-0.1618,-0.1632,-0.1739,-0.1864,-0.2015,-0.216,-0.2109,-0.2096,-0.1958,-0.1851,-0.1319,-0.1009,-0.0839,-0.0574,-0.0551,-0.0683,-0.0615,-0.0798,-0.0828,-0.0942,-0.0813,-0.0334,-0.0335,-0.0335,-0.0335,-0.0335,-0.0335,-0.142,-0.1348,-0.1407,-0.1491,-0.1622,-0.1687,-0.1739,-0.1676,-0.1537,-0.1161,-0.0767,-0.0545,-0.0391,-0.033,-0.0286,-0.0311,-0.0462,-0.0409,-0.0581,-0.0727,-0.0791,-0.0852,-0.0744,-0.0259,-0.0259,-0.0373,-0.0374,-0.0375]},{"header":{"parameterUnit":"m.s-1","parameterCategory":2,"la1":30.2991,"la2":30.254,"lo1":-89.0895,"lo2":-89.0444,"dy":0.0017,"dx":0.0017,"nx":28,"ny":28,"refTime":"2024-07-06T03:00:00:Z","depth":"0","parameterNumber":3,"parameterNumberName":"V-component_of_CURRENTS"},"data":[0,0,0,0,0,0,0,0,0,0,0,0,0,0,0,0,0,0,0,0,0,0,0,0,0,0,0,0,0,0,0,0,0,0,0,0,0,0,0,0,0,0,0,0,0,0,0,0,0,0,0,0,0,0,0,0,0,0,-0.0528,-0.0528,0,-0.0476,-0.0476,-0.0475,-0.0393,-0.0392,-0.039,-0.0389,-0.0265,-0.0263,-0.0261,0,0,0,0,0,0,0,0,0,0,0,0,0,-0.056,-0.056,-0.0528,-0.0528,-0.0527,-0.0477,-0.0476,-0.0475,-0.0393,-0.0392,-0.039,-0.0389,-0.0266,-0.0263,-0.0261,0,0,0,0,0,0,0,0,0,0,0,0,0,-0.053,-0.056,-0.0528,-0.0481,-0.0477,-0.0477,-0.0476,-0.0475,-0.0394,-0.0392,-0.039,-0.0388,-0.0266,-0.0263,-0.026,-0.0282,0,0,-0.0251,-0.025,0,0,0,0,0,0,0,0,-0.0532,-0.0529,-0.0489,-0.0485,-0.0479,-0.044,-0.0441,-0.0407,-0.0394,-0.0424,-0.0389,-0.0387,-0.0319,-0.0312,-0.0306,-0.0277,-0.0271,-0.0251,-0.0249,-0.0248,-0.0247,0,0,0,0,0,0,0,-0.0534,-0.053,-0.0506,-0.0488,-0.0483,-0.0464,-0.0458,-0.0435,-0.0381,-0.0421,-0.0415,-0.0412,-0.0316,-0.0309,-0.0302,-0.0269,-0.0251,-0.0248,-0.0246,-0.0245,-0.0278,-0.028,0,0,0,0,0,0,-0.0545,-0.0533,-0.0508,-0.0505,-0.0503,-0.0465,-0.0458,-0.0454,-0.0383,-0.0371,-0.0414,-0.0409,-0.0315,-0.0306,-0.0297,-0.0339,-0.0248,-0.0245,-0.0243,-0.0275,-0.0278,-0.0281,0,0,0,0,0,0,-0.0546,-0.0544,-0.051,-0.0519,-0.0513,-0.0467,-0.0463,-0.0454,-0.0441,-0.0379,-0.0365,-0.041,-0.0313,-0.0301,-0.0297,-0.0333,-0.0243,-0.0241,-0.0272,-0.0276,-0.028,-0.041,0,0,0,0,0,0,-0.0547,-0.0544,-0.055,-0.0519,-0.0513,-0.053,-0.0465,-0.0454,-0.0443,-0.0435,-0.0371,-0.0357,-0.0311,-0.0302,-0.0294,-0.0327,-0.0238,-0.0268,-0.0274,-0.0278,-0.0403,-0.0418,-0.0432,0,0,0,0,0,-0.0549,-0.057,-0.055,-0.0547,-0.0521,-0.0532,-0.0528,-0.0487,-0.0445,-0.0462,-0.0419,-0.0359,-0.0328,-0.0302,-0.0292,-0.0325,-0.0266,-0.0272,-0.0278,-0.0396,-0.0415,-0.0431,0,0,0,0,0,0,-0.0587,-0.0563,-0.054,-0.0553,-0.055,-0.0519,-0.0527,-0.0497,-0.0476,-0.0459,-0.0391,-0.0377,-0.0387,-0.0347,-0.032,-0.0353,-0.0289,-0.0293,-0.0382,-0.0399,-0.0414,-0.0441,-0.0236,0,0,0,0,0,-0.06,-0.0607,-0.0587,-0.0599,-0.0599,-0.0563,-0.056,-0.0536,-0.0512,-0.0499,-0.0458,-0.0421,-0.0408,-0.0395,-0.0375,-0.0393,-0.0349,-0.041,-0.0425,-0.0437,-0.0456,-0.046,-0.0476,-0.0301,-0.0301,-0.0301,0,0,-0.0619,-0.0606,-0.061,-0.0608,-0.0594,-0.0622,-0.0556,-0.0562,-0.0585,-0.049,-0.0506,-0.0468,-0.0426,-0.0447,-0.0448,-0.0414,-0.0457,-0.0445,-0.0456,-0.0468,-0.0468,-0.0485,-0.0499,-0.0305,-0.0305,-0.0304,0,0,-0.0675,-0.0649,-0.0681,-0.0687,-0.0681,-0.0666,-0.0673,-0.0652,-0.0641,-0.0661,-0.0599,-0.0592,-0.0567,-0.0551,-0.0537,-0.0625,-0.0535,-0.0612,-0.0705,-0.0708,-0.0723,-0.0735,-0.0662,-0.0667,-0.0619,-0.0619,-0.0619,0,-0.0699,-0.0732,-0.0696,-0.0734,-0.0749,-0.0693,-0.0743,-0.0735,-0.0718,-0.0731,-0.0685,-0.0676,-0.0624,-0.0661,-0.0684,-0.0657,-0.0619,-0.0637,-0.0727,-0.0738,-0.0748,-0.0671,-0.0675,-0.0626,-0.0625,-0.0625,-0.0624,0,-0.0784,-0.0811,-0.0833,-0.0858,-0.0874,-0.0906,-0.0894,-0.0907,-0.0881,-0.0874,-0.0902,-0.0846,-0.0842,-0.0825,-0.0774,-0.0829,-0.0762,-0.0743,-0.068,-0.0774,-0.0686,-0.0687,-0.0636,-0.0634,-0.0632,-0.063,0,0,-0.0845,-0.0885,-0.0896,-0.0933,-0.0942,-0.0971,-0.1012,-0.105,-0.109,-0.1067,-0.1127,-0.1091,-0.105,-0.1034,-0.0971,-0.0965,-0.0972,-0.0889,-0.0886,-0.0811,-0.0929,-0.0801,-0.0788,-0.0973,-0.0975,-0.0977,-0.0823,0,-0.0926,-0.1021,-0.102,-0.1118,-0.1164,-0.1143,-0.1198,-0.1219,-0.1216,-0.1261,-0.1214,-0.1238,-0.1133,-0.1132,-0.1115,-0.1046,-0.0989,-0.1012,-0.0854,-0.0848,-0.0721,-0.0792,-0.0705,-0.0556,-0.0824,-0.0824,-0.0824,0,-0.1018,-0.1068,-0.117,-0.1253,-0.1274,-0.1324,-0.1397,-0.1437,-0.1469,-0.1471,-0.1476,-0.1432,-0.1434,-0.132,-0.1228,-0.1252,-0.1088,-0.1,-0.0992,-0.0835,-0.0726,-0.0515,-0.0547,-0.0373,-0.0824,-0.0824,-0.0824,0,-0.1077,-0.1181,-0.1265,-0.1291,-0.1368,-0.142,-0.1461,-0.1503,-0.155,-0.1598,-0.1636,-0.1623,-0.1615,-0.1492,-0.1291,-0.1272,-0.116,-0.1108,-0.0813,-0.0798,-0.0674,-0.0646,-0.0519,-0.0988,-0.0988,-0.0988,-0.0989,0,-0.1159,-0.1222,-0.1304,-0.1347,-0.1461,-0.1495,-0.1611,-0.1635,-0.1705,-0.1762,-0.1741,-0.1762,-0.1661,-0.157,-0.1368,-0.111,-0.121,-0.0837,-0.0773,-0.071,-0.0689,-0.0489,-0.0457,-0.0982,-0.0984,-0.0985,-0.0986,0,-0.1158,-0.1232,-0.1312,-0.1422,-0.148,-0.1537,-0.1677,-0.1767,-0.1813,-0.1884,-0.1905,-0.1897,-0.1774,-0.1609,-0.14,-0.1189,-0.0845,-0.0808,-0.0704,-0.0631,-0.0203,-0.0183,-0.0039,0.0069,-0.0491,-0.0488,-0.0485,0,-0.1147,-0.119,-0.1325,-0.1412,-0.1458,-0.1583,-0.1696,-0.1793,-0.1863,-0.1928,-0.1958,-0.1894,-0.1757,-0.144,-0.113,-0.0771,-0.0651,-0.0445,-0.039,-0.0177,-0.0109,-0.012,-0.0043,-0.0249,-0.0244,-0.024,-0.0237,0,-0.1063,-0.1103,-0.1156,-0.1363,-0.1503,-0.1665,-0.1804,-0.1864,-0.1956,-0.1961,-0.1908,-0.1805,-0.1518,-0.112,-0.0711,-0.0498,-0.035,-0.0347,-0.0189,0.0033,0.0084,0.0218,-0.0302,-0.0202,-0.0205,-0.0208,-0.021,-0.0211,-0.0946,-0.0957,-0.1077,-0.1258,-0.1478,-0.1686,-0.1728,-0.1809,-0.1834,-0.1675,-0.1699,-0.134,-0.0992,-0.0412,-0.0247,0.0141,0.0032,0.0313,0.0312,0.0277,0.0384,-0.002,0.018,0.0178,0.0177,0.0176,0.0175,0,-0.0813,-0.0861,-0.1002,-0.1231,-0.1465,-0.1612,-0.1768,-0.1708,-0.1596,-0.1349,-0.1119,-0.0517,-0.0096,0.0194,0.0617,0.0809,0.0798,0.0851,0.0838,0.0883,0.0497,0.0516,0.087,0.0869,0.0869,0.0869,0.0869,0.0869,-0.0742,-0.0789,-0.087,-0.1156,-0.1357,-0.1525,-0.1558,-0.1403,-0.1182,-0.0614,-0.013,0.0199,0.0497,0.0889,0.1234,0.1266,0.1389,0.1329,0.1387,0.1117,0.1066,0.1017,0.1045,0.1504,0.1505,0.1794,0.1797,0.1799]}],[{"header":{"parameterUnit":"m.s-1","parameterCategory":2,"la1":30.2991,"la2":30.254,"lo1":-89.0895,"lo2":-89.0444,"dy":0.0017,"dx":0.0017,"nx":28,"ny":28,"refTime":"2024-07-06T03:00:00:Z","depth":"2","parameterNumber":2,"parameterNumberName":"U-component_of_CURRENTS"},"data":[0,0,0,0,0,0,0,0,0,0,0,0,0,0,0,0,0,0,0,0,0,0,0,0,0,0,0,0,0,0,0,0,0,0,0,0,0,0,0,0,0,0,0,0,0,0,0,0,0,0,0,0,0,0,0,0,0,0,-0.2168,-0.217,0,-0.228,-0.2281,-0.2281,-0.2335,-0.2336,-0.2337,-0.2338,-0.2257,-0.2253,-0.225,0,0,0,0,0,0,0,0,0,0,0,0,0,-0.187,-0.1875,-0.2167,-0.217,-0.2172,-0.228,-0.2281,-0.2281,-0.2334,-0.2336,-0.2337,-0.2338,-0.2258,-0.2254,-0.225,0,0,0,0,0,0,0,0,0,0,0,0,0,-0.1981,-0.1876,-0.2167,-0.2221,-0.2228,-0.228,-0.2281,-0.2281,-0.2334,-0.2336,-0.2337,-0.2339,-0.2259,-0.2254,-0.225,-0.2188,0,0,-0.2235,-0.2233,0,0,0,0,0,0,0,0,-0.1975,-0.199,-0.2211,-0.2218,-0.2226,-0.2306,-0.2147,-0.2244,-0.2334,-0.2281,-0.2338,-0.234,-0.2262,-0.2257,-0.226,-0.2184,-0.218,-0.2235,-0.2232,-0.223,-0.2228,0,0,0,0,0,0,0,-0.1967,-0.1985,-0.2199,-0.2214,-0.2223,-0.2197,-0.2214,-0.2165,-0.2247,-0.2286,-0.2293,-0.2324,-0.2263,-0.2264,-0.2258,-0.2179,-0.2235,-0.2231,-0.2228,-0.2226,-0.202,-0.2018,0,0,0,0,0,0,-0.1984,-0.1979,-0.2196,-0.2204,-0.2116,-0.2202,-0.2221,-0.2268,-0.2253,-0.2257,-0.2323,-0.2327,-0.2272,-0.2263,-0.2255,-0.2202,-0.223,-0.2225,-0.2223,-0.2023,-0.202,-0.2017,0,0,0,0,0,0,-0.1977,-0.2003,-0.2192,-0.2102,-0.2126,-0.2208,-0.2259,-0.227,-0.2297,-0.2286,-0.2284,-0.2344,-0.2273,-0.2262,-0.2216,-0.2198,-0.2223,-0.2219,-0.2026,-0.2022,-0.2018,-0.2081,0,0,0,0,0,0,-0.1968,-0.2,-0.2009,-0.2104,-0.2133,-0.2231,-0.2259,-0.2271,-0.2319,-0.2325,-0.2301,-0.2295,-0.2273,-0.2223,-0.2211,-0.2192,-0.2215,-0.2029,-0.2024,-0.202,-0.2083,-0.208,-0.2078,0,0,0,0,0,-0.1957,-0.1963,-0.2009,-0.2035,-0.2155,-0.2232,-0.2242,-0.2295,-0.2318,-0.2324,-0.2303,-0.2297,-0.2182,-0.2218,-0.2204,-0.2184,-0.2032,-0.2026,-0.202,-0.2084,-0.2081,-0.2078,0,0,0,0,0,0,-0.1853,-0.1973,-0.2026,-0.2074,-0.2158,-0.2246,-0.2244,-0.2302,-0.2294,-0.2295,-0.2275,-0.2265,-0.221,-0.2176,-0.2215,-0.2101,-0.21,-0.2091,-0.2153,-0.2149,-0.2147,-0.2099,-0.2211,0,0,0,0,0,-0.1838,-0.1865,-0.1997,-0.2036,-0.207,-0.2162,-0.2192,-0.2257,-0.2284,-0.2286,-0.2269,-0.2225,-0.2168,-0.2149,-0.2091,-0.204,-0.2034,-0.2008,-0.2006,-0.2005,-0.1949,-0.1965,-0.1961,-0.1998,-0.1998,-0.1998,0,0,-0.1831,-0.1882,-0.1914,-0.2013,-0.2068,-0.2096,-0.218,-0.2248,-0.2256,-0.2269,-0.2229,-0.2215,-0.2148,-0.2091,-0.2062,-0.207,-0.1997,-0.1997,-0.1998,-0.1941,-0.1958,-0.1956,-0.1953,-0.1994,-0.1994,-0.1995,0,0,-0.1798,-0.1857,-0.1867,-0.1914,-0.2011,-0.2058,-0.2086,-0.2186,-0.2206,-0.2204,-0.2193,-0.2172,-0.21,-0.2058,-0.2022,-0.1961,-0.1979,-0.1945,-0.1908,-0.1926,-0.1925,-0.1923,-0.1959,-0.196,-0.1953,-0.1954,-0.1954,0,-0.1778,-0.1808,-0.1883,-0.1887,-0.1914,-0.2036,-0.2055,-0.208,-0.2151,-0.2149,-0.2187,-0.2091,-0.207,-0.198,-0.1964,-0.1958,-0.1979,-0.1945,-0.1931,-0.1928,-0.1925,-0.1962,-0.1962,-0.1956,-0.1956,-0.1955,-0.1955,0,-0.1757,-0.177,-0.1768,-0.1804,-0.1839,-0.1876,-0.195,-0.197,-0.2018,-0.2057,-0.2019,-0.2009,-0.1954,-0.1955,-0.1941,-0.1891,-0.1919,-0.1935,-0.1958,-0.1927,-0.1966,-0.1966,-0.1959,-0.1958,-0.1958,-0.1957,0,0,-0.1736,-0.1754,-0.1754,-0.1748,-0.1802,-0.1841,-0.1824,-0.1859,-0.1858,-0.1902,-0.1884,-0.1823,-0.1863,-0.1817,-0.1826,-0.1841,-0.1883,-0.188,-0.188,-0.1949,-0.1945,-0.175,-0.1731,-0.1926,-0.1924,-0.1923,-0.2001,0,-0.1696,-0.1678,-0.1698,-0.1677,-0.1674,-0.1735,-0.171,-0.1753,-0.1791,-0.1793,-0.1804,-0.178,-0.1797,-0.1807,-0.1815,-0.1857,-0.1873,-0.1859,-0.1929,-0.1929,-0.1789,-0.1719,-0.158,-0.1615,-0.2,-0.2,-0.2,0,-0.1668,-0.164,-0.162,-0.1609,-0.1618,-0.1616,-0.162,-0.1626,-0.1642,-0.1676,-0.167,-0.1698,-0.1684,-0.1733,-0.1772,-0.1774,-0.1831,-0.1879,-0.1885,-0.1657,-0.1727,-0.1691,-0.1599,-0.1999,-0.1999,-0.1999,-0.1999,0,-0.1599,-0.1591,-0.1563,-0.1559,-0.156,-0.1552,-0.1565,-0.1589,-0.1597,-0.1605,-0.1636,-0.1623,-0.1665,-0.1694,-0.1768,-0.1793,-0.1835,-0.19,-0.1769,-0.1761,-0.1615,-0.1591,-0.1905,-0.1905,-0.1905,-0.1904,-0.1904,0,-0.1519,-0.1501,-0.1532,-0.1491,-0.1474,-0.1506,-0.1491,-0.1507,-0.1532,-0.1555,-0.1574,-0.1604,-0.1666,-0.1705,-0.175,-0.1723,-0.1824,-0.1705,-0.1733,-0.1632,-0.1609,-0.1905,-0.1904,-0.1907,-0.1907,-0.1906,-0.1906,0,-0.145,-0.1459,-0.143,-0.1426,-0.1431,-0.1428,-0.146,-0.1454,-0.1493,-0.1528,-0.1535,-0.1611,-0.1621,-0.1639,-0.1718,-0.1703,-0.1701,-0.1675,-0.1539,-0.154,-0.1637,-0.1638,-0.1536,-0.1529,-0.1523,-0.1518,-0.1513,0,-0.1422,-0.1391,-0.1391,-0.1378,-0.1371,-0.1378,-0.1378,-0.142,-0.143,-0.1545,-0.1557,-0.1584,-0.1578,-0.1549,-0.1463,-0.1404,-0.1544,-0.1294,-0.1253,-0.1543,-0.1584,-0.1594,-0.1603,-0.1153,-0.1146,-0.1141,-0.1136,0,-0.1351,-0.1365,-0.1338,-0.1309,-0.1304,-0.1304,-0.1319,-0.133,-0.1409,-0.1448,-0.1523,-0.1532,-0.1443,-0.1281,-0.1143,-0.1113,-0.1263,-0.1169,-0.1528,-0.1213,-0.1171,-0.1215,-0.1239,-0.1087,-0.1092,-0.1095,-0.1098,-0.11,-0.1333,-0.1316,-0.1284,-0.1258,-0.1247,-0.1233,-0.1192,-0.1245,-0.1269,-0.1284,-0.1394,-0.1332,-0.1292,-0.0936,-0.0859,-0.0754,-0.0856,-0.0872,-0.0896,-0.0924,-0.0809,-0.0752,-0.0573,-0.0575,-0.0576,-0.0578,-0.0579,0,-0.1274,-0.1253,-0.1232,-0.1179,-0.1132,-0.1151,-0.1137,-0.1088,-0.1093,-0.1085,-0.107,-0.0934,-0.0782,-0.0721,-0.0468,-0.0407,-0.0474,-0.0402,-0.0529,-0.0574,-0.0615,-0.0493,-0.017,-0.0169,-0.0168,-0.0168,0,0,-0.1236,-0.1182,-0.1166,-0.1073,-0.1035,-0.093,-0.0897,-0.0859,-0.0799,-0.0718,-0.0647,-0.0646,-0.0672,-0.0443,-0.035,-0.0221,-0.0398,-0.0179,-0.0495,-0.0685,-0.0727,-0.0853,-0.0707,0,0,0,0,0]},{"header":{"parameterUnit":"m.s-1","parameterCategory":2,"la1":30.2991,"la2":30.254,"lo1":-89.0895,"lo2":-89.0444,"dy":0.0017,"dx":0.0017,"nx":28,"ny":28,"refTime":"2024-07-06T03:00:00:Z","depth":"2","parameterNumber":3,"parameterNumberName":"V-component_of_CURRENTS"},"data":[0,0,0,0,0,0,0,0,0,0,0,0,0,0,0,0,0,0,0,0,0,0,0,0,0,0,0,0,0,0,0,0,0,0,0,0,0,0,0,0,0,0,0,0,0,0,0,0,0,0,0,0,0,0,0,0,0,0,-0.0091,-0.0088,0,0.0149,0.0151,0.0154,0.0234,0.0233,0.0232,0.0231,0.0403,0.0408,0.0413,0,0,0,0,0,0,0,0,0,0,0,0,0,-0.0264,-0.0263,-0.0091,-0.0088,-0.0085,0.0148,0.0151,0.0155,0.0234,0.0233,0.0232,0.0231,0.0401,0.0407,0.0414,0,0,0,0,0,0,0,0,0,0,0,0,0,-0.0125,-0.0263,-0.0092,-0.0016,-0.0007,0.0148,0.0152,0.0155,0.0235,0.0233,0.0232,0.0231,0.0399,0.0407,0.0415,0.0492,0,0,0.0439,0.0443,0,0,0,0,0,0,0,0,-0.0133,-0.0119,-0.003,-0.0021,-0.0011,0.0161,0.0154,0.0265,0.0235,0.0142,0.0231,0.023,0.0317,0.0332,0.0379,0.05,0.0507,0.044,0.0445,0.0448,0.0451,0,0,0,0,0,0,0,-0.0143,-0.0128,0.0003,-0.0027,-0.0015,0.008,0.0096,0.0176,0.0232,0.015,0.0156,0.0185,0.0322,0.0371,0.0384,0.0509,0.044,0.0447,0.0452,0.0455,0.075,0.0753,0,0,0,0,0,0,-0.018,-0.0138,-0.0005,0.001,-0.0075,0.0083,0.0101,0.0106,0.0233,0.0252,0.0186,0.0188,0.0358,0.0374,0.039,0.0473,0.0448,0.0456,0.0461,0.0748,0.0751,0.0754,0,0,0,0,0,0,-0.0185,-0.0172,-0.0015,-0.0056,-0.0029,0.0086,0.0092,0.0112,0.0168,0.0262,0.0278,0.0222,0.0358,0.0379,0.0488,0.048,0.046,0.0467,0.0744,0.0749,0.0753,0.0648,0,0,0,0,0,0,-0.0192,-0.0176,-0.0184,-0.006,-0.0028,0.0071,0.0095,0.0118,0.0188,0.0193,0.0298,0.0312,0.0358,0.0476,0.0496,0.0491,0.0473,0.074,0.0746,0.0751,0.0648,0.0649,0.0649,0,0,0,0,0,-0.0199,-0.0205,-0.0186,-0.0169,-0.0045,0.0072,0.0097,0.0176,0.019,0.0219,0.0307,0.0309,0.0525,0.0486,0.0508,0.0505,0.0737,0.0744,0.0751,0.0648,0.0649,0.0649,0,0,0,0,0,0,-0.0271,-0.0194,-0.0171,-0.0151,-0.0051,0.0086,0.0114,0.0181,0.0277,0.028,0.0358,0.038,0.0475,0.0528,0.0482,0.0617,0.0629,0.064,0.0542,0.0544,0.0545,0.0454,0.048,0,0,0,0,0,-0.0296,-0.0287,-0.0178,-0.0155,-0.0124,-0.0003,0.0054,0.0123,0.0227,0.0267,0.035,0.0442,0.0526,0.0561,0.0656,0.0728,0.073,0.0746,0.0746,0.0745,0.0695,0.0709,0.0702,0.0776,0.0776,0.0776,0,0,-0.0308,-0.0268,-0.0257,-0.017,-0.01,-0.0049,0.0026,0.0117,0.0165,0.0271,0.0355,0.0458,0.0556,0.064,0.0683,0.0673,0.0738,0.0754,0.0751,0.07,0.0714,0.0706,0.0698,0.0781,0.078,0.078,0,0,-0.0324,-0.0308,-0.0305,-0.0239,-0.0134,-0.0066,-0.0044,0.0102,0.0156,0.0281,0.0355,0.0449,0.0602,0.0646,0.0689,0.0755,0.0755,0.0804,0.0706,0.0721,0.0712,0.0703,0.0719,0.0713,0.0783,0.0783,0.0783,0,-0.0343,-0.0328,-0.0274,-0.0249,-0.0204,-0.0088,-0.0053,0.0021,0.0197,0.0232,0.0293,0.0494,0.0588,0.0631,0.0662,0.0742,0.0754,0.0679,0.071,0.0702,0.0695,0.0713,0.0707,0.0779,0.0779,0.078,0.078,0,-0.0346,-0.0333,-0.0325,-0.0282,-0.023,-0.0166,-0.0074,-0.0008,0.0081,0.0164,0.0269,0.0412,0.0509,0.057,0.0637,0.0641,0.0669,0.0714,0.0676,0.0679,0.0701,0.0697,0.0773,0.0774,0.0775,0.0776,0,0,-0.0386,-0.0338,-0.0336,-0.0318,-0.0236,-0.018,-0.0149,-0.0071,-0.0043,0.0097,0.0137,0.0284,0.035,0.0404,0.0498,0.051,0.0509,0.0577,0.058,0.0535,0.0533,0.0584,0.0585,0.0549,0.0547,0.0546,0.0572,0,-0.0396,-0.0374,-0.0348,-0.0315,-0.0293,-0.0222,-0.0198,-0.0122,-0.0035,0.0034,0.0121,0.0219,0.0284,0.0354,0.0362,0.0493,0.049,0.0496,0.0585,0.0587,0.0585,0.0579,0.0572,0.0596,0.0568,0.0567,0.0566,0,-0.0407,-0.0392,-0.0373,-0.033,-0.0318,-0.0291,-0.0244,-0.0194,-0.0124,-0.0055,-0.0011,0.0088,0.0126,0.0214,0.029,0.029,0.0381,0.0462,0.0467,0.0529,0.0629,0.0593,0.0589,0.0559,0.056,0.0561,0.0561,0,-0.0441,-0.0407,-0.0397,-0.0376,-0.0319,-0.0312,-0.0283,-0.0224,-0.0184,-0.0122,-0.0075,-0.0031,0.0036,0.0102,0.0281,0.0279,0.0388,0.0416,0.0525,0.0531,0.0546,0.0555,0.044,0.044,0.044,0.044,0.044,0,-0.0449,-0.044,-0.0413,-0.0395,-0.0392,-0.0344,-0.0324,-0.0289,-0.0233,-0.0203,-0.0133,-0.0089,0.0013,0.0111,0.0233,0.0368,0.0343,0.0478,0.0529,0.052,0.0527,0.0513,0.0521,0.0441,0.0441,0.0441,0.0441,0,-0.0474,-0.045,-0.0441,-0.0407,-0.0401,-0.0399,-0.0358,-0.0336,-0.0286,-0.0249,-0.0232,-0.0142,-0.0038,0.0096,0.0249,0.0327,0.0462,0.0528,0.0515,0.0562,0.0591,0.0594,0.0579,0.058,0.0582,0.0583,0.0584,0,-0.0487,-0.0479,-0.0465,-0.0465,-0.0452,-0.044,-0.0427,-0.0374,-0.0344,-0.027,-0.0249,-0.0149,-0.0061,0.0165,0.0333,0.0507,0.0525,0.06,0.0581,0.0547,0.0598,0.06,0.0601,0.0573,0.0574,0.0575,0.0576,0,-0.0516,-0.051,-0.0506,-0.0512,-0.0508,-0.0494,-0.0467,-0.045,-0.0386,-0.0346,-0.0268,-0.0196,0.001,0.0195,0.0429,0.0532,0.0558,0.0618,0.0587,0.0548,0.0547,0.0597,0.0597,0.0582,0.0581,0.0581,0.0581,0.058,-0.0552,-0.0564,-0.0559,-0.057,-0.0567,-0.0549,-0.0542,-0.0496,-0.0458,-0.0379,-0.0298,-0.0149,0.005,0.0379,0.0509,0.0623,0.0626,0.0655,0.0651,0.0646,0.0649,0.0651,0.0706,0.0706,0.0706,0.0706,0.0706,0,-0.0586,-0.0594,-0.0611,-0.0618,-0.0635,-0.0609,-0.057,-0.0543,-0.0509,-0.0367,-0.0281,-0.0036,0.0189,0.0385,0.0573,0.0678,0.0646,0.0676,0.0621,0.0617,0.0612,0.061,0.0659,0.0658,0.0658,0.0658,0,0,-0.0599,-0.0619,-0.0633,-0.0688,-0.0695,-0.07,-0.0684,-0.0616,-0.0494,-0.0357,-0.0194,0.0016,0.0277,0.0405,0.0525,0.0592,0.0564,0.0585,0.0622,0.054,0.0533,0.0612,0.0607,0,0,0,0,0]}],[{"header":{"parameterUnit":"m.s-1","parameterCategory":2,"la1":30.2991,"la2":30.254,"lo1":-89.0895,"lo2":-89.0444,"dy":0.0017,"dx":0.0017,"nx":28,"ny":28,"refTime":"2024-07-06T03:00:00:Z","depth":"4","parameterNumber":2,"parameterNumberName":"U-component_of_CURRENTS"},"data":[0,0,0,0,0,0,0,0,0,0,0,0,0,0,0,0,0,0,0,0,0,0,0,0,0,0,0,0,0,0,0,0,0,0,0,0,0,0,0,0,0,0,0,0,0,0,0,0,0,0,0,0,0,0,0,0,0,0,-0.1005,-0.1005,0,-0.1051,-0.1052,-0.1053,-0.1078,-0.1077,-0.1077,-0.1077,-0.1089,-0.1089,-0.109,0,0,0,0,0,0,0,0,0,0,0,0,0,-0.097,-0.0971,-0.1005,-0.1005,-0.1005,-0.1051,-0.1052,-0.1053,-0.1078,-0.1077,-0.1077,-0.1077,-0.1089,-0.1089,-0.109,0,0,0,0,0,0,0,0,0,0,0,0,0,-0.1001,-0.0971,-0.1005,-0.102,-0.1022,-0.1051,-0.1052,-0.1053,-0.1078,-0.1077,-0.1077,-0.1077,-0.1088,-0.1089,-0.109,-0.1104,0,0,-0.1093,-0.1093,0,0,0,0,0,0,0,0,-0.1,-0.1003,-0.1018,-0.1019,-0.1021,-0.1055,-0.1044,-0.1067,-0.1078,-0.1061,-0.1077,-0.1076,-0.1072,-0.1075,-0.109,-0.1105,-0.1105,-0.1093,-0.1094,-0.1094,-0.1094,0,0,0,0,0,0,0,-0.0997,-0.1001,-0.1027,-0.1018,-0.102,-0.1036,-0.104,-0.1049,-0.107,-0.1062,-0.1063,-0.1062,-0.1073,-0.1089,-0.109,-0.1105,-0.1093,-0.1094,-0.1094,-0.1095,-0.1162,-0.1163,0,0,0,0,0,0,-0.0983,-0.0999,-0.1025,-0.1028,-0.1005,-0.1037,-0.1041,-0.1048,-0.1071,-0.1074,-0.1063,-0.1063,-0.1088,-0.1089,-0.1091,-0.113,-0.1094,-0.1095,-0.1095,-0.1161,-0.1163,-0.1164,0,0,0,0,0,0,-0.0982,-0.0985,-0.1023,-0.1011,-0.1017,-0.1037,-0.1044,-0.1049,-0.1076,-0.1071,-0.1074,-0.1086,-0.1088,-0.1089,-0.1114,-0.1129,-0.1095,-0.1096,-0.116,-0.1161,-0.1163,-0.1194,0,0,0,0,0,0,-0.0981,-0.0985,-0.0999,-0.1011,-0.1017,-0.104,-0.1044,-0.105,-0.1073,-0.1075,-0.1092,-0.1092,-0.1087,-0.1113,-0.1115,-0.113,-0.1097,-0.1158,-0.116,-0.1163,-0.1192,-0.1197,-0.1202,0,0,0,0,0,-0.098,-0.0995,-0.1,-0.1003,-0.1031,-0.104,-0.1045,-0.106,-0.1075,-0.1085,-0.1106,-0.1092,-0.1129,-0.1115,-0.1117,-0.1132,-0.1157,-0.116,-0.1162,-0.1189,-0.1196,-0.1201,0,0,0,0,0,0,-0.0983,-0.0999,-0.1004,-0.1023,-0.1029,-0.1042,-0.1062,-0.1071,-0.1099,-0.1108,-0.111,-0.1112,-0.1138,-0.1136,-0.112,-0.1161,-0.114,-0.1144,-0.116,-0.1166,-0.1171,-0.1183,-0.1097,0,0,0,0,0,-0.099,-0.1007,-0.1015,-0.1028,-0.1039,-0.1055,-0.1068,-0.1074,-0.1091,-0.1105,-0.112,-0.1137,-0.1151,-0.1159,-0.117,-0.1194,-0.1185,-0.1206,-0.1211,-0.1215,-0.1228,-0.1228,-0.1234,-0.1173,-0.1173,-0.1173,0,0,-0.0989,-0.1002,-0.101,-0.103,-0.1045,-0.1065,-0.1064,-0.1082,-0.1105,-0.11,-0.1151,-0.1155,-0.1163,-0.1189,-0.12,-0.1189,-0.1226,-0.1219,-0.1222,-0.1233,-0.1232,-0.1237,-0.1242,-0.1175,-0.1175,-0.1175,0,0,-0.0993,-0.1016,-0.1033,-0.1045,-0.1064,-0.1079,-0.1086,-0.111,-0.1134,-0.117,-0.1175,-0.1195,-0.1222,-0.123,-0.1236,-0.1278,-0.1253,-0.1279,-0.1313,-0.1313,-0.1317,-0.1321,-0.1307,-0.1309,-0.128,-0.128,-0.1281,0,-0.0998,-0.1019,-0.1036,-0.1055,-0.1076,-0.1088,-0.1112,-0.1136,-0.1165,-0.1192,-0.1189,-0.1243,-0.1245,-0.1276,-0.1292,-0.1289,-0.1279,-0.1286,-0.1318,-0.1322,-0.1325,-0.1309,-0.1312,-0.1282,-0.1282,-0.1282,-0.1282,0,-0.1006,-0.1033,-0.1047,-0.1082,-0.1106,-0.1126,-0.1156,-0.119,-0.1223,-0.1242,-0.1289,-0.1295,-0.1322,-0.1326,-0.1324,-0.1353,-0.1334,-0.1321,-0.1298,-0.1333,-0.1314,-0.1316,-0.1285,-0.1284,-0.1284,-0.1283,0,0,-0.0987,-0.1046,-0.105,-0.1081,-0.1127,-0.1145,-0.1199,-0.1248,-0.1281,-0.1316,-0.1357,-0.139,-0.1388,-0.1396,-0.1389,-0.1396,-0.1407,-0.1375,-0.1374,-0.1353,-0.1396,-0.1279,-0.1269,-0.1395,-0.1396,-0.1397,-0.1369,0,-0.0993,-0.1044,-0.1071,-0.1122,-0.1159,-0.1199,-0.1244,-0.1288,-0.1327,-0.1365,-0.1388,-0.1412,-0.1414,-0.1415,-0.1429,-0.1409,-0.1415,-0.1415,-0.1373,-0.1372,-0.1257,-0.1269,-0.14,-0.137,-0.137,-0.1371,-0.1371,0,-0.0983,-0.1032,-0.1092,-0.1163,-0.1182,-0.1214,-0.1296,-0.133,-0.1384,-0.1409,-0.1443,-0.1448,-0.1471,-0.1457,-0.1461,-0.1458,-0.144,-0.1425,-0.1423,-0.1307,-0.1258,-0.1332,-0.1374,-0.1374,-0.1373,-0.1373,-0.1373,0,-0.0965,-0.1036,-0.1095,-0.1118,-0.1203,-0.1245,-0.1286,-0.1349,-0.1379,-0.1427,-0.1438,-0.1472,-0.1465,-0.1473,-0.1446,-0.1454,-0.1431,-0.1431,-0.1313,-0.1304,-0.1405,-0.1401,-0.1439,-0.1439,-0.1439,-0.1439,-0.1439,0,-0.0953,-0.0998,-0.1093,-0.1125,-0.1188,-0.1244,-0.1298,-0.1341,-0.1387,-0.1393,-0.1447,-0.1433,-0.1468,-0.1454,-0.1449,-0.1372,-0.143,-0.132,-0.129,-0.1417,-0.1415,-0.1405,-0.1401,-0.1438,-0.1438,-0.1438,-0.1438,0,-0.092,-0.0978,-0.1049,-0.1152,-0.118,-0.1223,-0.1293,-0.1313,-0.1367,-0.1371,-0.138,-0.1404,-0.1364,-0.1385,-0.1367,-0.1338,-0.13,-0.126,-0.1385,-0.1362,-0.1178,-0.1177,-0.1133,-0.1129,-0.1125,-0.1122,-0.1119,0,-0.091,-0.0949,-0.1058,-0.1086,-0.1134,-0.12,-0.1224,-0.1293,-0.1298,-0.1323,-0.1301,-0.1289,-0.1287,-0.1179,-0.1211,-0.1187,-0.1177,-0.1166,-0.1194,-0.1172,-0.1148,-0.1152,-0.1156,-0.1114,-0.1113,-0.1112,-0.1111,0,-0.0909,-0.0951,-0.1008,-0.1057,-0.1095,-0.1128,-0.1165,-0.1162,-0.1203,-0.126,-0.1184,-0.1157,-0.11,-0.1082,-0.1061,-0.1051,-0.1183,-0.1128,-0.1136,-0.1163,-0.1148,-0.1128,-0.1136,-0.1098,-0.11,-0.1101,-0.1102,0,-0.0907,-0.0929,-0.0988,-0.1014,-0.1046,-0.1032,-0.107,-0.1055,-0.1069,-0.1096,-0.1052,-0.1043,-0.1059,-0.1006,-0.0988,-0.0964,-0.0962,-0.0961,-0.0979,-0.0993,-0.0961,-0.0922,-0.0774,0,0,0,0,0,-0.0899,-0.0903,-0.0933,-0.0943,-0.0956,-0.0967,-0.1009,-0.1041,-0.1074,-0.0988,-0.1022,-0.0959,-0.0904,-0.0908,-0.0853,-0.0935,-0.0978,-0.087,-0.0991,-0.1027,-0.1042,-0.1017,0,0,0,0,0,0,-0.0895,-0.0925,-0.0919,-0.0864,-0.0839,-0.0841,-0.0861,-0.089,-0.0855,-0.0893,-0.0867,-0.0899,-0.0864,-0.0904,-0.0826,-0.0829,-0.0889,-0.0876,-0.0874,-0.1018,-0.1032,-0.1044,-0.1023,0,0,0,0,0]},{"header":{"parameterUnit":"m.s-1","parameterCategory":2,"la1":30.2991,"la2":30.254,"lo1":-89.0895,"lo2":-89.0444,"dy":0.0017,"dx":0.0017,"nx":28,"ny":28,"refTime":"2024-07-06T03:00:00:Z","depth":"4","parameterNumber":3,"parameterNumberName":"V-component_of_CURRENTS"},"data":[0,0,0,0,0,0,0,0,0,0,0,0,0,0,0,0,0,0,0,0,0,0,0,0,0,0,0,0,0,0,0,0,0,0,0,0,0,0,0,0,0,0,0,0,0,0,0,0,0,0,0,0,0,0,0,0,0,0,-0.0296,-0.0296,0,-0.0284,-0.0283,-0.0283,-0.0271,-0.0271,-0.0271,-0.0271,-0.0236,-0.0235,-0.0234,0,0,0,0,0,0,0,0,0,0,0,0,0,-0.0261,-0.0262,-0.0296,-0.0296,-0.0296,-0.0284,-0.0283,-0.0283,-0.0271,-0.0271,-0.0271,-0.0271,-0.0236,-0.0235,-0.0234,0,0,0,0,0,0,0,0,0,0,0,0,0,-0.0263,-0.0262,-0.0296,-0.029,-0.0289,-0.0284,-0.0283,-0.0283,-0.0271,-0.0271,-0.0271,-0.0271,-0.0237,-0.0235,-0.0234,-0.0223,0,0,-0.0229,-0.0229,0,0,0,0,0,0,0,0,-0.0263,-0.0264,-0.0291,-0.029,-0.029,-0.0281,-0.0258,-0.0263,-0.0271,-0.0275,-0.0271,-0.0271,-0.025,-0.0248,-0.0242,-0.0222,-0.022,-0.0229,-0.0228,-0.0228,-0.0227,0,0,0,0,0,0,0,-0.0263,-0.0264,-0.0289,-0.0291,-0.029,-0.0272,-0.0272,-0.0259,-0.026,-0.0275,-0.0274,-0.0277,-0.0249,-0.0244,-0.0241,-0.022,-0.0229,-0.0228,-0.0227,-0.0226,-0.018,-0.018,0,0,0,0,0,0,-0.0272,-0.0264,-0.0289,-0.0288,-0.0279,-0.0273,-0.0273,-0.0282,-0.0261,-0.0259,-0.0277,-0.0276,-0.0246,-0.0243,-0.024,-0.0212,-0.0228,-0.0226,-0.0225,-0.018,-0.018,-0.018,0,0,0,0,0,0,-0.0271,-0.0274,-0.029,-0.0277,-0.0278,-0.0274,-0.0283,-0.0281,-0.0281,-0.0263,-0.026,-0.0279,-0.0246,-0.0242,-0.0226,-0.0211,-0.0226,-0.0224,-0.0181,-0.018,-0.018,-0.0165,0,0,0,0,0,0,-0.027,-0.0274,-0.0283,-0.0278,-0.028,-0.029,-0.0283,-0.0281,-0.0283,-0.0283,-0.0264,-0.0261,-0.0246,-0.0229,-0.0225,-0.0209,-0.0223,-0.0181,-0.0181,-0.018,-0.0166,-0.0164,-0.0163,0,0,0,0,0,-0.0269,-0.0282,-0.0284,-0.0287,-0.0292,-0.0291,-0.0289,-0.0284,-0.0284,-0.0284,-0.0267,-0.0261,-0.0222,-0.0227,-0.0223,-0.0207,-0.0182,-0.0181,-0.018,-0.0167,-0.0165,-0.0163,0,0,0,0,0,0,-0.0271,-0.0282,-0.0284,-0.03,-0.0298,-0.029,-0.0292,-0.0289,-0.0277,-0.0276,-0.0258,-0.0253,-0.0233,-0.0225,-0.0232,-0.0192,-0.02,-0.0199,-0.0192,-0.019,-0.0188,-0.0165,-0.0222,0,0,0,0,0,-0.0277,-0.0291,-0.0293,-0.0306,-0.0305,-0.0299,-0.0299,-0.0297,-0.0287,-0.0282,-0.0265,-0.0246,-0.0226,-0.0214,-0.0198,-0.0177,-0.0146,-0.0164,-0.0162,-0.0161,-0.014,-0.0063,-0.0052,-0.0177,-0.0177,-0.0177,0,0,-0.0282,-0.029,-0.0299,-0.0307,-0.0304,-0.0299,-0.0299,-0.0302,-0.0291,-0.028,-0.0257,-0.0243,-0.0221,-0.0194,-0.0185,-0.0185,-0.0118,-0.016,-0.0159,-0.0138,-0.0061,-0.0048,-0.0037,-0.0176,-0.0176,-0.0177,0,0,-0.0295,-0.0305,-0.0317,-0.0314,-0.0317,-0.0308,-0.0311,-0.0302,-0.0292,-0.0276,-0.0258,-0.0225,-0.0211,-0.0171,-0.0155,-0.0133,-0.0114,-0.0145,-0.0109,-0.0036,-0.0024,-0.0013,0.0009,0.0022,-0.0139,-0.0139,-0.0139,0,-0.0297,-0.0313,-0.0319,-0.0321,-0.0317,-0.0312,-0.031,-0.0296,-0.0281,-0.0257,-0.027,-0.0201,-0.0188,-0.0124,-0.0119,-0.0124,-0.0101,-0.012,-0.0031,-0.0019,-0.0008,0.0012,0.0027,-0.0138,-0.0138,-0.0138,-0.0138,0,-0.0313,-0.032,-0.0324,-0.0324,-0.032,-0.0319,-0.0302,-0.0284,-0.0273,-0.0249,-0.0195,-0.0165,-0.0118,-0.0113,-0.0111,-0.0029,-0.0047,-0.0041,-0.0032,0.0006,0.0024,0.0038,-0.0137,-0.0137,-0.0137,-0.0138,0,0,-0.0329,-0.0334,-0.0335,-0.0327,-0.0321,-0.0314,-0.029,-0.0253,-0.022,-0.0191,-0.0139,-0.009,-0.0065,-0.0044,-0.0027,0.0038,0.0116,0.0028,0.0031,0.0057,0.0244,0.0186,0.0195,0.0138,0.0141,0.0144,0.0214,0,-0.0334,-0.0341,-0.034,-0.0328,-0.0325,-0.0301,-0.0274,-0.0238,-0.0206,-0.0152,-0.0093,-0.0048,-0.0043,-0.0024,0.0048,0.0094,0.016,0.0094,0.0199,0.0201,0.0153,0.0213,0.0155,0.0224,0.0228,0.023,0.0232,0,-0.0347,-0.0348,-0.0348,-0.032,-0.0315,-0.0303,-0.0247,-0.0222,-0.0145,-0.0118,-0.0047,-0.0013,0.0078,0.0072,0.0211,0.0164,0.0212,0.0253,0.0257,0.0217,0.0172,0.0187,0.0258,0.0256,0.0254,0.0253,0.0251,0,-0.0354,-0.0347,-0.0346,-0.034,-0.0312,-0.0294,-0.0272,-0.0209,-0.0176,-0.0095,-0.0064,0.0045,0.0087,0.0189,0.0245,0.024,0.0382,0.0386,0.0387,0.0381,0.0404,0.0392,0.0514,0.0514,0.0513,0.0513,0.0513,0,-0.0354,-0.0349,-0.035,-0.0345,-0.033,-0.0304,-0.0266,-0.0228,-0.0163,-0.012,-0.0049,0.0002,0.0123,0.02,0.0267,0.0353,0.0403,0.0415,0.0416,0.04,0.0387,0.0412,0.0399,0.0516,0.0515,0.0515,0.0514,0,-0.0356,-0.0357,-0.0357,-0.0341,-0.0337,-0.0327,-0.0288,-0.0251,-0.0195,-0.0139,-0.0117,-0.0014,0.0083,0.0179,0.0324,0.0365,0.0458,0.0476,0.0417,0.0409,0.0404,0.0391,0.0516,0.0515,0.0514,0.0513,0.0513,0,-0.0357,-0.0361,-0.037,-0.0375,-0.037,-0.0353,-0.0336,-0.0281,-0.0247,-0.0155,-0.0128,-0.0027,0.004,0.018,0.0297,0.0425,0.0439,0.0477,0.0493,0.0426,0.0415,0.0403,0.0392,0.0511,0.0511,0.0511,0.0511,0,-0.0365,-0.0377,-0.0383,-0.04,-0.0398,-0.0381,-0.0356,-0.0338,-0.0269,-0.0215,-0.0152,-0.0065,0.0039,0.016,0.0243,0.0343,0.0453,0.0469,0.0473,0.0488,0.0422,0.0409,0.0399,0.0508,0.0508,0.0509,0.0509,0,-0.0383,-0.0398,-0.0419,-0.0427,-0.0429,-0.0419,-0.0395,-0.0357,-0.0321,-0.0228,-0.0211,-0.0093,-0.0011,0.0119,0.0204,0.0283,0.0325,0.0351,0.0361,0.0366,0.0299,0.0191,0.0231,0,0,0,0,0,-0.0404,-0.0423,-0.0438,-0.0455,-0.0454,-0.0455,-0.0411,-0.0377,-0.0321,-0.0296,-0.0255,-0.0168,-0.0025,0.0055,0.0125,0.0212,0.0348,0.0299,0.0384,0.0492,0.0495,0.0436,0,0,0,0,0,0,-0.0421,-0.0445,-0.0454,-0.0481,-0.0493,-0.0488,-0.0467,-0.0421,-0.0396,-0.0334,-0.0262,-0.0183,-0.0044,-0.0096,0.0105,0.0141,0.02,0.0383,0.0384,0.049,0.0493,0.0495,0.0436,0,0,0,0,0]}]]